When you browse on this site, cookies collect data to enhance your experience and personalize the content and advertising you see.
Visit our Privacy Policy to learn more. By continuing to use the site, you agree to this use of cookies and data.
  • In United Kingdom
  • List of Countries
  • For 7 days
  • Water Temperature
  • Weather Map
  • Weather Widgets
  • user-avatar
    Login

    Hourly Weather El Quseir

    Today, 20 September, Friday

    Time Temperature Precipitation Wind Pressure Humidity
    00:00 +33°C° 0 mm 10 mps 755 mmHg 39%
    01:00 +32°C° 0 mm 10 mps 754 mmHg 41%
    02:00 +31°C° 0 mm 9 mps 754 mmHg 44%
    03:00 +32°C° 0 mm 10 mps 754 mmHg 42%
    04:00 +32°C° 0 mm 10 mps 754 mmHg 41%
    05:00 +32°C° 0 mm 10 mps 755 mmHg 40%
    06:00 +34°C° 0 mm 10 mps 755 mmHg 36%
    07:00 +37°C° 0 mm 10 mps 755 mmHg 33%
    08:00 +39°C° 0 mm 10 mps 755 mmHg 28%
    09:00 +40°C° 0 mm 10 mps 755 mmHg 29%
    10:00 +42°C° 0 mm 10 mps 755 mmHg 29%
    11:00 +43°C° 0 mm 11 mps 755 mmHg 29%
    12:00 +43°C° 0 mm 10 mps 755 mmHg 30%
    13:00 +43°C° 0 mm 9 mps 754 mmHg 31%
    14:00 +43°C° 0 mm 8 mps 753 mmHg 32%
    15:00 +43°C° 0 mm 8 mps 753 mmHg 33%
    16:00 +41°C° 0 mm 7 mps 754 mmHg 34%
    17:00 +40°C° 0 mm 7 mps 754 mmHg 34%
    18:00 +38°C° 0 mm 7 mps 754 mmHg 38%
    19:00 +35°C° 0 mm 7 mps 754 mmHg 42%
    20:00 +34°C° 0 mm 7 mps 754 mmHg 46%
    21:00 +33°C° 0 mm 7 mps 754 mmHg 45%
    22:00 +33°C° 0 mm 8 mps 754 mmHg 43%
    23:00 +33°C° 0 mm 8 mps 754 mmHg 42%

    Tomorrow, 21 September, Saturday

    Time Temperature Precipitation Wind Pressure Humidity
    00:00 +32°C° 0 mm 9 mps 754 mmHg 45%
    01:00 +31°C° 0 mm 10 mps 754 mmHg 48%
    02:00 +31°C° 0 mm 11 mps 754 mmHg 51%
    03:00 +29°C° 0 mm 11 mps 754 mmHg 53%
    04:00 +28°C° 0 mm 11 mps 754 mmHg 55%
    05:00 +28°C° 0 mm 12 mps 754 mmHg 57%
    06:00 +31°C° 0 mm 12 mps 754 mmHg 50%
    07:00 +32°C° 0 mm 12 mps 755 mmHg 43%
    08:00 +34°C° 0 mm 12 mps 755 mmHg 36%
    09:00 +38°C° 0 mm 12 mps 755 mmHg 31%
    10:00 +41°C° 0 mm 12 mps 755 mmHg 26%
    11:00 +43°C° 0 mm 11 mps 755 mmHg 21%
    12:00 +43°C° 0 mm 11 mps 754 mmHg 22%
    13:00 +44°C° 0 mm 11 mps 754 mmHg 23%
    14:00 +44°C° 0 mm 11 mps 753 mmHg 24%
    15:00 +43°C° 0 mm 11 mps 753 mmHg 25%
    16:00 +42°C° 0 mm 11 mps 753 mmHg 25%
    17:00 +41°C° 0 mm 11 mps 753 mmHg 26%
    18:00 +38°C° 0 mm 11 mps 753 mmHg 26%
    19:00 +37°C° 0 mm 11 mps 754 mmHg 27%
    20:00 +34°C° 0 mm 11 mps 754 mmHg 27%
    21:00 +33°C° 0 mm 11 mps 754 mmHg 28%
    22:00 +33°C° 0 mm 11 mps 754 mmHg 28%
    23:00 +32°C° 0 mm 11 mps 754 mmHg 28%

    Day after tomorrow, 22 September, Sunday

    Time Temperature Precipitation Wind Pressure Humidity
    00:00 +31°C° 0 mm 11 mps 754 mmHg 29%
    01:00 +31°C° 0 mm 12 mps 754 mmHg 29%
    02:00 +29°C° 0 mm 12 mps 754 mmHg 30%
    03:00 +29°C° 0 mm 12 mps 754 mmHg 30%
    04:00 +28°C° 0 mm 12 mps 754 mmHg 29%
    05:00 +28°C° 0 mm 12 mps 754 mmHg 29%
    06:00 +31°C° 0 mm 12 mps 754 mmHg 27%
    07:00 +32°C° 0 mm 12 mps 755 mmHg 24%
    08:00 +34°C° 0 mm 12 mps 755 mmHg 21%
    09:00 +36°C° 0 mm 11 mps 755 mmHg 23%
    10:00 +38°C° 0 mm 11 mps 755 mmHg 25%
    11:00 +39°C° 0 mm 11 mps 755 mmHg 26%
    12:00 +39°C° 0 mm 11 mps 754 mmHg 28%
    13:00 +39°C° 0 mm 10 mps 754 mmHg 30%
    14:00 +39°C° 0 mm 10 mps 753 mmHg 32%
    15:00 +38°C° 0 mm 10 mps 753 mmHg 33%
    16:00 +38°C° 0 mm 9 mps 753 mmHg 34%
    17:00 +37°C° 0 mm 9 mps 753 mmHg 35%
    18:00 +34°C° 0 mm 9 mps 754 mmHg 38%
    19:00 +33°C° 0 mm 8 mps 754 mmHg 40%
    20:00 +31°C° 0 mm 8 mps 755 mmHg 43%
    21:00 +31°C° 0 mm 8 mps 755 mmHg 43%
    22:00 +29°C° 0 mm 8 mps 755 mmHg 44%
    23:00 +29°C° 0 mm 8 mps 755 mmHg 44%

    23 September, Monday

    Time Temperature Precipitation Wind Pressure Humidity
    00:00 +29°C° 0 mm 8 mps 755 mmHg 42%
    01:00 +29°C° 0 mm 8 mps 754 mmHg 40%
    02:00 +29°C° 0 mm 9 mps 754 mmHg 38%
    03:00 +28°C° 0 mm 10 mps 754 mmHg 41%
    04:00 +28°C° 0 mm 11 mps 755 mmHg 43%
    05:00 +28°C° 0 mm 12 mps 755 mmHg 46%
    06:00 +29°C° 0 mm 11 mps 755 mmHg 41%
    07:00 +32°C° 0 mm 11 mps 755 mmHg 35%
    08:00 +34°C° 0 mm 11 mps 756 mmHg 30%
    09:00 +37°C° 0 mm 11 mps 756 mmHg 29%
    10:00 +38°C° 0 mm 11 mps 756 mmHg 28%
    11:00 +39°C° 0 mm 10 mps 756 mmHg 26%
    12:00 +40°C° 0 mm 10 mps 755 mmHg 27%
    13:00 +40°C° 0 mm 10 mps 754 mmHg 28%
    14:00 +40°C° 0 mm 9 mps 754 mmHg 28%
    15:00 +39°C° 0 mm 9 mps 754 mmHg 30%
    16:00 +38°C° 0 mm 8 mps 754 mmHg 31%
    17:00 +37°C° 0 mm 8 mps 754 mmHg 32%
    18:00 +34°C° 0 mm 8 mps 754 mmHg 36%
    19:00 +32°C° 0 mm 8 mps 755 mmHg 39%
    20:00 +31°C° 0 mm 8 mps 755 mmHg 43%
    21:00 +29°C° 0 mm 8 mps 755 mmHg 41%
    22:00 +29°C° 0 mm 8 mps 755 mmHg 39%
    23:00 +29°C° 0 mm 8 mps 755 mmHg 37%

    24 September, Tuesday

    Time Temperature Precipitation Wind Pressure Humidity
    00:00 +28°C° 0 mm 8 mps 755 mmHg 38%
    01:00 +28°C° 0 mm 9 mps 755 mmHg 39%
    02:00 +28°C° 0 mm 10 mps 755 mmHg 40%
    03:00 +27°C° 0 mm 10 mps 755 mmHg 43%
    04:00 +27°C° 0 mm 11 mps 755 mmHg 46%
    05:00 +26°C° 0 mm 11 mps 755 mmHg 50%
    06:00 +28°C° 0 mm 11 mps 755 mmHg 45%
    07:00 +31°C° 0 mm 11 mps 756 mmHg 40%
    08:00 +33°C° 0 mm 11 mps 756 mmHg 35%
    09:00 +34°C° 0 mm 10 mps 756 mmHg 33%
    10:00 +37°C° 0 mm 10 mps 756 mmHg 31%
    11:00 +38°C° 0 mm 10 mps 755 mmHg 30%
    12:00 +38°C° 0 mm 9 mps 755 mmHg 31%
    13:00 +38°C° 0 mm 9 mps 754 mmHg 33%
    14:00 +39°C° 0 mm 8 mps 754 mmHg 34%
    15:00 +37°C° 0 mm 8 mps 754 mmHg 37%
    16:00 +35°C° 0 mm 7 mps 754 mmHg 40%
    17:00 +34°C° 0 mm 7 mps 753 mmHg 43%
    18:00 +32°C° 0 mm 6 mps 754 mmHg 48%
    19:00 +30°C° 0 mm 6 mps 754 mmHg 53%
    20:00 +28°C° 0 mm 6 mps 755 mmHg 58%
    21:00 +28°C° 0 mm 7 mps 755 mmHg 54%
    22:00 +28°C° 0 mm 7 mps 755 mmHg 50%
    23:00 +28°C° 0 mm 7 mps 755 mmHg 47%

    25 September, Wednesday

    Time Temperature Precipitation Wind Pressure Humidity
    00:00 +28°C° 0 mm 8 mps 754 mmHg 46%
    01:00 +27°C° 0 mm 9 mps 754 mmHg 45%
    02:00 +27°C° 0 mm 10 mps 754 mmHg 44%
    03:00 +26°C° 0 mm 10 mps 754 mmHg 45%
    04:00 +26°C° 0 mm 10 mps 754 mmHg 46%
    05:00 +24°C° 0 mm 10 mps 754 mmHg 48%
    06:00 +27°C° 0 mm 10 mps 755 mmHg 42%
    07:00 +29°C° 0 mm 10 mps 755 mmHg 36%
    08:00 +33°C° 0 mm 10 mps 756 mmHg 30%
    09:00 +34°C° 0 mm 9 mps 756 mmHg 27%
    10:00 +37°C° 0 mm 9 mps 756 mmHg 24%
    11:00 +38°C° 0 mm 9 mps 756 mmHg 20%
    12:00 +39°C° 0 mm 8 mps 755 mmHg 22%
    13:00 +39°C° 0 mm 8 mps 755 mmHg 24%
    14:00 +39°C° 0 mm 8 mps 755 mmHg 26%
    15:00 +38°C° 0 mm 7 mps 755 mmHg 30%
    16:00 +36°C° 0 mm 6 mps 754 mmHg 34%
    17:00 +34°C° 0 mm 6 mps 754 mmHg 38%
    18:00 +32°C° 0 mm 6 mps 755 mmHg 43%
    19:00 +29°C° 0 mm 6 mps 755 mmHg 48%
    20:00 +27°C° 0 mm 6 mps 756 mmHg 53%
    21:00 +27°C° 0 mm 6 mps 756 mmHg 49%
    22:00 +28°C° 0 mm 6 mps 756 mmHg 44%
    23:00 +28°C° 0 mm 6 mps 756 mmHg 40%
    Show more